Simultaneous Nadir Overpasses (SNOs) Predictions

Prediction of SNOs between AQUA and NPP Satellite Orbit:

Table of predicted SNOs for the next 14.0 days since TLE Epoch: 4/10/2020
Index Date (AQUA) Time (AQUA) Lat,Lon (AQUA) SZA (AQUA ) Date (NPP) Time (NPP) Lat,Lon (NPP) SZA (NPP ) Distance(km) Time Diff (sec)
1 04/11/2020 22:38:20 76.27, 80.31 88.35 04/11/2020 22:38:06 76.28, 80.38 88.35 2.03 14
2 04/11/2020 23:27:32 -76.98,-109.60 92.50 04/11/2020 23:28:36 -76.98,-109.61 92.56 0.34 64
3 04/14/2020 14:05:42 -75.33, 25.72 91.53 04/14/2020 14:04:38 -75.32, 25.70 91.47 0.62 64
4 04/14/2020 14:54:42 76.60,-162.73 86.99 04/14/2020 14:54:54 76.61,-162.63 86.96 2.71 12
5 04/17/2020 06:22:00 -75.81, 142.98 93.04 04/17/2020 06:21:22 -75.80, 142.99 93.01 0.25 38
6 04/17/2020 07:11:09 76.63, -46.75 86.00 04/17/2020 07:11:48 76.62, -46.82 85.99 2.13 39
7 04/19/2020 22:38:20 -76.22, -99.85 94.46 04/19/2020 22:38:08 -76.23, -99.80 94.46 1.51 12
8 04/19/2020 23:27:30 76.98, 70.40 84.64 04/19/2020 23:28:35 76.98, 70.38 84.59 0.49 65
9 04/22/2020 14:05:38 75.39,-154.08 85.60 04/22/2020 14:04:35 75.40,-154.07 85.65 0.37 63




NCC Satellite Simultaneous Nadir Overpasses (SNOs) Prediction Service
